Погода в Бегичеве

Россия / Орловская область     52°45′07″N   37°43′23″E
темп.,
°C
ветер,
м/с
пор.,
м/с
влажн.,
%
обл.,
%
осадки,
мм/ч
давл.,
гПа
погр.,
м
19 мая, ср
ср1900:00+15ю3796100 0.0 1005269
03:00+14юв489387 0.1 1005283
06:00+14ююв599521 0.0 1005330
09:00+17ююв577575 0.3 1006821
12:00+20ююв686452 0.3 10061479
15:00+18ююв6872100 1.9 10061218
18:00+14ю61196100 5.4 1006711
21:00+14в359498 9.4 1005239
20 мая, чт
чт2000:00+12юв81294100 0.9 1003753
03:00+10ююв6129784 1.3 1004427
06:00+11юв61093100 0.0 1005676
09:00+13ююв798693 0.1 1004741
12:00+12ююв5994100 0.6 1005597
15:00+14юз4783100 1.2 1006729
18:00+14юз6108987 1.3 1006631
21:00+11юз499685 1.4 1008371
21 мая, пт
пт2100:00+11юз51097100 0.1 1009529
03:00+10зюз599464 0.1 1010555
06:00+9зюз51194100 0.0 1012447
09:00+12зсз61076100 0.0 1014647
12:00+16зсз565949 0.0 10151189
15:00+17сз3455100 0.0 10151459
18:00+17ссз2264100 0.0 10161130
21:00+13вюв1169100 0.0 101811
22 мая, сб
сб2200:00+12в117598 0.0 101710
03:00+11всв1280100 0.0 101810
06:00+12всв3684100 0.0 1018161
09:00+14вюв5680100 0.0 1019788
12:00+15в5673100 0.0 1019756
15:00+17всв5568100 0.0 1018961
18:00+16в4677100 0.0 1017719
21:00+12всв369488 0.0 1018127
23 мая, вс
вс2300:00+12всв41096100 0.0 1016239
03:00+11всв41196100 0.0 1015302
06:00+12всв51094100 0.0 1013264
09:00+16в4585100 0.0 1011326
12:00+19юв3479100 0.1 1010425
15:00+21всв2275100 0.3 1008560
18:00+19ссв3487100 0.2 1007186
21:00+17сз4796100 1.8 1007161